Current Version              Previous Version:    01  02  03  04  05  06  07  08  09  10  11  12  13  14  15  16  17  18  19  20  21  22  23  24  25  26  27  28  29  30  
   31  32  33  34  35  36  37  38  39  40  41  42  43  44  45  46  47  48  49  50  51  52  53  54  55  56  57  58  59  60  

[Printable]
503
ASUS44 KFWD 170701
RWRTX
NORTH TEXAS HOURLY WEATHER ROUNDUP
NATIONAL WEATHER SERVICE FORT WORTH TX
200 AM CDT THU APR 17 2014

NOTE: "FAIR" INDICATES FEW OR NO CLOUDS BELOW 12,000 FEET WITH NO
SIGNIFICANT WEATHER AND/OR OBSTRUCTIONS TO VISIBILITY.

TXZ118-119-170800-
DALLAS/FORT WORTH METROPLEX

CITY           SKY/WX    TMP DP  RH WIND       PRES   REMARKS
DFW AIRPORT    CLEAR     53  40  61 E8        30.04R
DALLAS LOVE    CLEAR     55  39  54 SE14      30.05R
FTW MEACHAM    CLEAR     55  44  66 SE9       30.03R
DAL-EXECUTIVE  CLEAR     51  41  68 E7        30.04R
FTW-ALLIANCE   PTCLDY    53  41  63 SE9       30.03R
FTW-NAS-JRB    CLEAR     58  41  53 E9        30.07R
ARLINGTON      CLEAR     53  44  71 E8        30.04R
ADDISON        CLEAR     55  40  55 SE9       30.07R
$$

TXZ091>094-102>105-117-120-121-131>134-170800-
NORTH CENTRAL TEXAS

CITY           SKY/WX    TMP DP  RH WIND       PRES   REMARKS
DENTON         CLEAR     53  41  63 SE9       30.04R
MCKINNEY       CLEAR     50  40  68 SE5       30.07R
ROCKWALL       CLEAR     50  40  68 E5        30.05S
TERRELL        CLEAR     50  40  68 E5        30.07R
CLEBURNE       CLEAR     54  46  76 SE13      30.03S
$$

TXZ083>090-098>101-113>116-127>130-139>142-154-155-170800-
WESTERN NORTH TEXAS

CITY           SKY/WX    TMP DP  RH WIND       PRES   REMARKS
WICHITA FALLS  CLEAR     52  42  69 E14       29.99R
ABILENE        CLEAR     57  39  51 SE18G25   29.89S
ABILENE-DYESS  CLEAR     60  40  48 SE14      29.88S
BRECKENRIDGE   CLEAR     58  46  62 SE15G21   29.94R
MINERAL WELLS  CLEAR     53  45  74 SE14      29.98R
STEPHENVILLE   CLEAR     53  46  76 SE9       30.00S
BROWNWOOD      CLOUDY    55  46  71 SE12      29.95S
$$

TXZ143>147-156>162-174-175-170800-
CENTRAL TEXAS

CITY           SKY/WX    TMP DP  RH WIND       PRES   REMARKS
WACO           PTCLDY    53  47  79 SE10      30.02S
WACO-MCGREGOR  PTCLDY    52  45  76 SE8       30.04R
CORSICANA      CLEAR     53  45  74 SE10      30.06S
MEXIA          PTCLDY    51  47  85 SE6       30.04S
TEMPLE         MOCLDY    54  46  76 SE10      30.05S
KILLEEN        NOT AVBL
KILLEEN-SKYLRK MOCLDY    55  45  67 SE9       30.00S
LAMPASAS       MOCLDY    55  49  80 S9        29.98R
$$

TXZ095>097-106>112-122>126-135>138-148>153-164>167-170800-
EAST TEXAS

CITY           SKY/WX    TMP DP  RH WIND       PRES   REMARKS
PARIS          CLEAR     45  36  70 E10       30.10F WCI  39
TYLER          CLEAR     51  41  68 SE9       30.08S
LONGVIEW       CLEAR     45  40  82 CALM      30.11R
ATHENS         CLEAR     46  41  81 CALM      30.07S
JACKSONVILLE   PTCLDY    49  43  79 SE3       30.11S
NACOGDOCHES    PTCLDY    45  39  81 CALM      30.11S
LUFKIN         MOCLDY    51  46  83 E6        30.10S
$$

SUPPLEMENTAL OBSERVATIONS (CENTRAL)

CITY           SKY/WX    TMP DP  RH WIND       PRES   REMARKS
$$

SUPPLEMENTAL OBSERVATIONS (WEST)

CITY           SKY/WX    TMP DP  RH WIND       PRES   REMARKS
$$

SUPPLEMENTAL OBSERVATIONS (EAST)

CITY           SKY/WX    TMP DP  RH WIND       PRES   REMARKS
$$

SUPPLEMENTAL OBSERVATIONS ARE A COLLECTION OF AUTOMATED INSTRUMENTS
THAT ARE MAINTAINED BY A VARIETY OF FEDERAL AND STATE AGENCIES.
CERTAIN ELEMENTS...SUCH AS HUMIDITY VALUES AND SUSTAINED WIND
SPEEDS...MAY BE APPROXIMATED.